Tracking 19575 objects as of 18-Feb-2019
HD Live streaming from Space Station
objects crossing your sky now

LEMUR 2 JOBANPUTRA

Track LEMUR 2 JOBANPUTRA now!
10-day predictions
LEMUR 2 JOBANPUTRA is classified as:


NORAD ID: 41997
Int'l Code: 2017-008BB
Perigee: 493.3 km
Apogee: 503.5 km
Inclination: 97.4 °
Period: 94.4 minutes
Semi major axis: 6869 km
RCS: Unknown
Launch date: February 15, 2017
Source: United States (US)
Launch site: SRIHARIKOTA (SRI)
aabbcc
Your satellite tracking list
Your tracking list is empty




NASA's NSSDC Master Catalog

Two Line Element Set (TLE):
1 41997U 17008BB  19048.86361877 +.00001384 +00000-0 +58617-4 0  9991
2 41997 097.4203 116.8354 0007455 217.1222 142.9501 15.24834039110848
Source of the keplerian elements: AFSPC